[[{"header":{"parameterUnit":"m.s-1","parameterCategory":1,"la1":30.2991,"la2":30.254,"lo1":-89.0895,"lo2":-89.0444,"dy":0.0017,"dx":0.0017,"nx":28,"ny":28,"refTime":"2024-06-02T21:00:00:Z","depth":0,"parameterNumber":2,"parameterNumberName":"U-component_of_WINDS"},"data":[0,0,0,0,0,0,0,0,0,0,0,0,0,0,0,0,0,0,0,0,0,0,0,0,0,0,0,0,0,0,0,0,0,0,0,0,0,0,0,0,0,0,0,0,0,0,0,0,0,0,0,0,0,0,0,0,0,0,-0.3324,-0.3325,0,-0.336,-0.336,-0.3361,-0.3387,-0.3387,-0.3387,-0.3387,-0.3426,-0.3427,-0.3428,0,0,0,0,0,0,0,0,0,0,0,0,0,-0.3281,-0.3281,-0.3324,-0.3325,-0.3325,-0.336,-0.336,-0.3361,-0.3387,-0.3387,-0.3387,-0.3388,-0.3426,-0.3427,-0.3428,0,0,0,0,0,0,0,0,0,0,0,0,0,-0.3306,-0.3282,-0.3324,-0.3342,-0.3344,-0.336,-0.336,-0.3361,-0.3387,-0.3387,-0.3387,-0.3388,-0.3425,-0.3427,-0.3428,-0.3429,0,0,-0.3431,-0.3432,0,0,0,0,0,0,0,0,-0.3305,-0.3308,-0.3339,-0.3341,-0.3343,-0.3369,-0.3359,-0.3384,-0.3387,-0.3371,-0.3387,-0.3388,-0.3407,-0.341,-0.3416,-0.343,-0.3432,-0.3432,-0.3432,-0.3433,-0.3433,0,0,0,0,0,0,0,-0.3303,-0.3307,-0.3338,-0.334,-0.3342,-0.3349,-0.3353,-0.3364,-0.3387,-0.3372,-0.3374,-0.3378,-0.3408,-0.3414,-0.3417,-0.3433,-0.3432,-0.3433,-0.3433,-0.3434,-0.345,-0.345,0,0,0,0,0,0,-0.3298,-0.3305,-0.3337,-0.334,-0.3324,-0.335,-0.3354,-0.3361,-0.3387,-0.3391,-0.3377,-0.3379,-0.3412,-0.3415,-0.3418,-0.3421,-0.3433,-0.3434,-0.3435,-0.3451,-0.345,-0.345,0,0,0,0,0,0,-0.3297,-0.3301,-0.3336,-0.3323,-0.3328,-0.335,-0.3357,-0.3361,-0.3367,-0.3391,-0.3395,-0.338,-0.3413,-0.3417,-0.3426,-0.3423,-0.3435,-0.3436,-0.3451,-0.3451,-0.345,-0.3427,0,0,0,0,0,0,-0.3296,-0.33,-0.33,-0.3323,-0.3328,-0.3342,-0.3357,-0.3362,-0.3369,-0.3371,-0.3394,-0.3398,-0.3413,-0.3424,-0.3427,-0.3425,-0.3437,-0.3451,-0.3451,-0.345,-0.3428,-0.3426,-0.3424,0,0,0,0,0,-0.3294,-0.3293,-0.33,-0.3304,-0.3329,-0.3342,-0.3345,-0.3362,-0.3369,-0.337,-0.3384,-0.3397,-0.3423,-0.3425,-0.3428,-0.3427,-0.3452,-0.3451,-0.345,-0.3429,-0.3426,-0.3424,0,0,0,0,0,0,-0.3271,-0.3296,-0.3305,-0.3311,-0.3324,-0.3346,-0.3348,-0.3359,-0.3371,-0.3373,-0.3394,-0.3399,-0.3406,-0.3417,-0.3419,-0.3429,-0.3439,-0.3439,-0.3421,-0.3419,-0.3417,-0.3414,-0.3438,0,0,0,0,0,-0.3266,-0.3274,-0.3296,-0.3299,-0.3305,-0.3325,-0.3332,-0.3343,-0.3358,-0.3364,-0.338,-0.3394,-0.3406,-0.3413,-0.3425,-0.343,-0.3435,-0.343,-0.3428,-0.3426,-0.3426,-0.343,-0.3428,-0.3448,-0.3448,-0.3448,0,0,-0.3257,-0.3272,-0.3276,-0.3295,-0.3307,-0.3315,-0.333,-0.3338,-0.3345,-0.3366,-0.3375,-0.3387,-0.3405,-0.3412,-0.3416,-0.3422,-0.3422,-0.3426,-0.3424,-0.3425,-0.3429,-0.3427,-0.3426,-0.3447,-0.3447,-0.3447,0,0,-0.3245,-0.3257,-0.326,-0.3272,-0.3289,-0.3302,-0.3303,-0.3324,-0.3332,-0.3342,-0.3358,-0.3366,-0.3385,-0.3397,-0.3406,-0.3398,-0.341,-0.3401,-0.339,-0.3393,-0.3392,-0.3391,-0.3388,-0.3387,-0.3401,-0.3401,-0.3401,0,-0.3232,-0.3244,-0.3261,-0.3268,-0.3276,-0.3295,-0.3299,-0.331,-0.333,-0.3336,-0.3341,-0.3365,-0.3379,-0.3389,-0.3387,-0.3393,-0.3395,-0.3399,-0.339,-0.3389,-0.3389,-0.3386,-0.3385,-0.3399,-0.3399,-0.34,-0.34,0,-0.3227,-0.3235,-0.3236,-0.3255,-0.3263,-0.3269,-0.3287,-0.3293,-0.3305,-0.3317,-0.3327,-0.3344,-0.3359,-0.3362,-0.3373,-0.3374,-0.3377,-0.3386,-0.3397,-0.3385,-0.3383,-0.3383,-0.3398,-0.3398,-0.3398,-0.3399,0,0,-0.3202,-0.3229,-0.3229,-0.3238,-0.3258,-0.3265,-0.3271,-0.3286,-0.3291,-0.3304,-0.3311,-0.3326,-0.3335,-0.3344,-0.3357,-0.336,-0.3353,-0.3369,-0.337,-0.3366,-0.3355,-0.3348,-0.3347,-0.3361,-0.3361,-0.336,-0.3354,0,-0.3193,-0.3205,-0.322,-0.3227,-0.3236,-0.3253,-0.3259,-0.3272,-0.3284,-0.3294,-0.3307,-0.3318,-0.3328,-0.3334,-0.3338,-0.3353,-0.3351,-0.3353,-0.3368,-0.3368,-0.3363,-0.3346,-0.3339,-0.3331,-0.3353,-0.3353,-0.3353,0,-0.3184,-0.3196,-0.3203,-0.3222,-0.3227,-0.3231,-0.3246,-0.3254,-0.3269,-0.3278,-0.3288,-0.3302,-0.331,-0.3319,-0.3332,-0.3333,-0.334,-0.3348,-0.3348,-0.335,-0.336,-0.3348,-0.333,-0.3329,-0.3352,-0.3352,-0.3352,0,-0.3165,-0.3183,-0.319,-0.3196,-0.3219,-0.3222,-0.3231,-0.3247,-0.3255,-0.3267,-0.3273,-0.3286,-0.3294,-0.3305,-0.3322,-0.3327,-0.3332,-0.3343,-0.334,-0.334,-0.3341,-0.3341,-0.3324,-0.3345,-0.3345,-0.3345,-0.3345,0,-0.3154,-0.3158,-0.3181,-0.3186,-0.3191,-0.3209,-0.3214,-0.3225,-0.3239,-0.3246,-0.3262,-0.3269,-0.3291,-0.33,-0.3314,-0.3322,-0.3326,-0.3333,-0.3337,-0.3332,-0.3331,-0.3337,-0.3338,-0.3345,-0.3345,-0.3345,-0.3345,0,-0.3134,-0.315,-0.3158,-0.3179,-0.3184,-0.3187,-0.3204,-0.321,-0.3222,-0.3231,-0.3234,-0.3255,-0.3266,-0.3284,-0.3302,-0.3311,-0.3317,-0.3323,-0.3312,-0.3314,-0.3311,-0.3311,-0.3297,-0.3297,-0.3317,-0.3317,-0.3317,0,-0.3126,-0.313,-0.315,-0.3155,-0.3164,-0.3173,-0.318,-0.3198,-0.3206,-0.3223,-0.3226,-0.3239,-0.3251,-0.3269,-0.3286,-0.3299,-0.3306,-0.33,-0.3308,-0.3303,-0.3306,-0.3306,-0.3307,-0.3298,-0.3298,-0.3298,-0.3297,0,-0.311,-0.3118,-0.3127,-0.314,-0.3148,-0.3159,-0.3171,-0.3174,-0.3195,-0.3202,-0.3214,-0.3223,-0.324,-0.3253,-0.3269,-0.328,-0.3292,-0.3295,-0.3295,-0.329,-0.3284,-0.3288,-0.3307,-0.3295,-0.3295,-0.3295,-0.3296,-0.3296,-0.3097,-0.31,-0.3115,-0.3125,-0.3136,-0.3146,-0.3152,-0.3165,-0.3175,-0.319,-0.32,-0.3211,-0.3227,-0.3249,-0.3259,-0.3269,-0.3274,-0.3274,-0.3275,-0.3275,-0.3273,-0.3282,-0.3272,-0.3272,-0.3272,-0.3272,-0.3272,0,-0.3082,-0.3092,-0.3101,-0.3117,-0.3125,-0.3134,-0.3148,-0.3154,-0.3164,-0.3177,-0.3187,-0.3201,-0.3214,-0.3231,-0.3245,-0.3249,-0.3256,-0.3253,-0.3253,-0.3255,-0.3267,-0.3266,-0.3247,-0.3247,-0.3247,-0.3247,-0.3247,-0.3247,-0.3076,-0.3082,-0.3091,-0.3104,-0.3114,-0.3125,-0.3132,-0.3141,-0.3152,-0.3166,-0.3176,-0.3187,-0.3202,-0.3217,-0.3229,-0.3234,-0.3239,-0.3234,-0.3241,-0.3252,-0.3254,-0.3256,-0.3255,-0.3235,-0.3235,-0.3228,-0.3228,-0.3228]},{"header":{"parameterUnit":"m.s-1","parameterCategory":1,"la1":30.2991,"la2":30.254,"lo1":-89.0895,"lo2":-89.0444,"dy":0.0017,"dx":0.0017,"nx":28,"ny":28,"refTime":"2024-06-02T21:00:00:Z","depth":0,"parameterNumber":3,"parameterNumberName":"V-component_of_WINDS"},"data":[0,0,0,0,0,0,0,0,0,0,0,0,0,0,0,0,0,0,0,0,0,0,0,0,0,0,0,0,0,0,0,0,0,0,0,0,0,0,0,0,0,0,0,0,0,0,0,0,0,0,0,0,0,0,0,0,0,0,3.1702,3.1701,0,3.1627,3.1626,3.1625,3.158,3.158,3.1579,3.1579,3.1499,3.1497,3.1495,0,0,0,0,0,0,0,0,0,0,0,0,0,3.1804,3.1802,3.1702,3.1701,3.17,3.1627,3.1626,3.1625,3.158,3.158,3.1579,3.1579,3.1499,3.1497,3.1495,0,0,0,0,0,0,0,0,0,0,0,0,0,3.1747,3.1802,3.1702,3.1669,3.1665,3.1627,3.1626,3.1625,3.158,3.158,3.1579,3.1579,3.15,3.1497,3.1494,3.1482,0,0,3.1485,3.1484,0,0,0,0,0,0,0,0,3.175,3.1743,3.1675,3.1671,3.1667,3.1612,3.1632,3.1577,3.158,3.1612,3.1579,3.1579,3.1537,3.1531,3.1517,3.1479,3.1475,3.1485,3.1483,3.1482,3.1481,0,0,0,0,0,0,0,3.1754,3.1746,3.1672,3.1674,3.1669,3.1657,3.1648,3.1621,3.1577,3.1609,3.1606,3.1598,3.1534,3.152,3.1515,3.1474,3.1485,3.1483,3.1481,3.148,3.1422,3.1422,0,0,0,0,0,0,3.1764,3.175,3.1675,3.167,3.1709,3.1655,3.1646,3.163,3.1577,3.1569,3.1598,3.1596,3.1525,3.1518,3.1512,3.1494,3.1482,3.1479,3.1478,3.1421,3.1422,3.1422,0,0,0,0,0,0,3.1766,3.1758,3.1678,3.1709,3.1698,3.1654,3.1637,3.1629,3.1614,3.1569,3.156,3.1592,3.1525,3.1516,3.149,3.1491,3.1478,3.1475,3.1421,3.1421,3.1422,3.1459,0,0,0,0,0,0,3.177,3.1759,3.1755,3.1709,3.1696,3.1658,3.1637,3.1628,3.161,3.1606,3.1561,3.1553,3.1524,3.1495,3.1487,3.1486,3.1473,3.1421,3.1421,3.1422,3.1457,3.146,3.1463,0,0,0,0,0,3.1773,3.1767,3.1755,3.1746,3.169,3.1658,3.1651,3.1619,3.161,3.1605,3.1576,3.1554,3.1492,3.1493,3.1484,3.1482,3.1421,3.1421,3.1422,3.1456,3.1459,3.1463,0,0,0,0,0,0,3.1812,3.1761,3.1746,3.1725,3.1697,3.1651,3.1643,3.1624,3.1596,3.1594,3.1554,3.1544,3.1522,3.1499,3.1501,3.1467,3.1454,3.1453,3.1483,3.1486,3.1489,3.1494,3.1471,0,0,0,0,0,3.1818,3.1798,3.1754,3.1739,3.1726,3.1687,3.1672,3.165,3.1618,3.1606,3.1574,3.1544,3.1517,3.15,3.1473,3.1454,3.1443,3.1448,3.1451,3.1454,3.1453,3.144,3.1442,3.1423,3.1423,3.1423,0,0,3.1831,3.18,3.1789,3.1747,3.1722,3.1701,3.1677,3.1656,3.1639,3.1602,3.1576,3.1552,3.1515,3.1493,3.1481,3.1473,3.1456,3.1454,3.1457,3.1454,3.1441,3.1443,3.1445,3.1424,3.1424,3.1424,0,0,3.1842,3.1818,3.1803,3.1779,3.1743,3.1717,3.1714,3.1671,3.1654,3.1628,3.16,3.1579,3.1534,3.1509,3.149,3.1494,3.1473,3.1486,3.15,3.1489,3.149,3.1492,3.1492,3.1493,3.1486,3.1486,3.1486,0,3.1862,3.183,3.1798,3.1778,3.176,3.1727,3.1711,3.1689,3.1645,3.1633,3.1625,3.1569,3.1541,3.1513,3.1514,3.15,3.1494,3.1491,3.1493,3.1494,3.1494,3.1495,3.1495,3.1487,3.1487,3.1487,3.1487,0,3.1855,3.1834,3.1826,3.1786,3.1767,3.175,3.1714,3.1699,3.1679,3.1654,3.1627,3.1594,3.1559,3.1551,3.153,3.1519,3.1515,3.1501,3.1486,3.1499,3.1498,3.1498,3.149,3.1489,3.1489,3.1488,0,0,3.1888,3.1832,3.1829,3.1811,3.1769,3.1751,3.1732,3.17,3.1687,3.1658,3.164,3.1604,3.1591,3.1569,3.1546,3.1536,3.1541,3.1523,3.1521,3.1527,3.1526,3.1536,3.1537,3.1527,3.1527,3.1527,3.1529,0,3.1893,3.1859,3.1829,3.1805,3.1784,3.1753,3.1737,3.1708,3.1685,3.1663,3.1636,3.1611,3.1596,3.1583,3.1572,3.1543,3.154,3.1542,3.1509,3.1509,3.1519,3.1537,3.1548,3.1551,3.1528,3.1528,3.1528,0,3.1894,3.1868,3.1842,3.1803,3.1793,3.1778,3.1747,3.1727,3.1694,3.1677,3.1655,3.1631,3.1608,3.1597,3.1565,3.1568,3.1552,3.1536,3.1536,3.1531,3.1519,3.1532,3.1552,3.1552,3.1528,3.1528,3.1528,0,3.192,3.1878,3.1858,3.1843,3.1796,3.1787,3.1767,3.1734,3.1717,3.1689,3.1677,3.1647,3.163,3.1606,3.1574,3.1569,3.1546,3.1532,3.1531,3.1532,3.1527,3.1527,3.1544,3.1518,3.1518,3.1518,3.1518,0,3.1928,3.1914,3.1869,3.1856,3.1838,3.1805,3.1788,3.1765,3.1736,3.1718,3.1689,3.1672,3.1631,3.1609,3.1584,3.1561,3.1554,3.1539,3.1532,3.1541,3.1543,3.153,3.1529,3.1518,3.1518,3.1518,3.1518,0,3.1954,3.1924,3.1899,3.1857,3.1847,3.1836,3.1799,3.1785,3.1761,3.1738,3.173,3.1691,3.1663,3.163,3.1591,3.1574,3.1554,3.1544,3.1565,3.1561,3.1562,3.1563,3.1571,3.157,3.1546,3.1546,3.1546,0,3.1961,3.1949,3.1907,3.1893,3.1875,3.1853,3.1835,3.1802,3.1785,3.1747,3.1737,3.1708,3.1683,3.164,3.1608,3.1578,3.1567,3.1572,3.1562,3.1572,3.1567,3.1568,3.1566,3.1574,3.1575,3.1575,3.1575,0,3.1977,3.1963,3.1939,3.1911,3.1892,3.1868,3.1842,3.1832,3.1793,3.1775,3.1748,3.1728,3.1689,3.166,3.1627,3.1605,3.1583,3.1579,3.1577,3.1586,3.1598,3.1591,3.1572,3.1579,3.1578,3.1578,3.1578,3.1578,3.1993,3.1981,3.195,3.1925,3.1903,3.188,3.1865,3.1839,3.1816,3.1782,3.1764,3.1737,3.1704,3.1657,3.1636,3.1614,3.1606,3.1603,3.1602,3.1602,3.1605,3.1603,3.1607,3.1607,3.1607,3.1607,3.1607,0,3.2007,3.1986,3.1963,3.1929,3.191,3.1893,3.1864,3.1848,3.1825,3.1797,3.1774,3.1742,3.1714,3.168,3.1649,3.1638,3.1627,3.1631,3.1631,3.1626,3.1614,3.1618,3.164,3.164,3.164,3.164,3.164,3.164,3.2012,3.1991,3.1973,3.1941,3.1919,3.1894,3.1879,3.1857,3.1835,3.1801,3.1778,3.1757,3.1726,3.1693,3.1667,3.1657,3.1647,3.1654,3.1641,3.163,3.1627,3.1624,3.1628,3.1652,3.1652,3.1655,3.1656,3.1656]}]]